QPF
0.00 0.00 0.00 0.00 0.00 0.00 0.00 0.00 0.00 0.00 0.00 0.00 0.00 0.00 0.00 0.00 0.00 0.00 0.00 0.00 0.00 0.00 0.00 0.00 0.00 0.00 0.00 0.00 0.00 0.00 0.00 0.00 0.00 0.00 0.00 0.01 0.00 0.00 0.00 0.01 0.04 0.04 0.02
0.00 0.00 0.00 0.00 0.00 0.00 0.00 0.00 0.00 0.00 0.00 0.00 0.00 0.00 0.00 0.00 0.00 0.00 0.00 0.00 0.00 0.00 0.00 0.00 0.00 0.00 0.00 0.00 0.00 0.00 0.00 0.00 0.00 0.00 0.00 0.00 0.01 0.00 0.00 0.00 0.01 0.14 0.12
0.00 0.00 0.00 0.00 0.00 0.00 0.00 0.00 0.00 0.00 0.00 0.00 0.00 0.00 0.00 0.00 0.00 0.00 0.00 0.00 0.00 0.00 0.00 0.00 0.00 0.00 0.00 0.00 0.00 0.00 0.00 0.00 0.00 0.00 0.00 0.02 0.10 0.02 0.00 0.01 0.04 0.08 0.11
0.00 0.00 0.00 0.00 0.00 0.00 0.00 0.00 0.00 0.00 0.00 0.00 0.00 0.00 0.00 0.00 0.00 0.00 0.00 0.00 0.00 0.00 0.00 0.00 0.00 0.00 0.00 0.00 0.00 0.00 0.00 0.00 0.00 0.00 0.00 0.00 0.03 0.03 0.00 0.04 0.10 0.15 0.17
0.00 0.00 0.00 0.00 0.00 0.00 0.00 0.00 0.00 0.00 0.00 0.00 0.00 0.00 0.00 0.00 0.00 0.00 0.00 0.00 0.00 0.00 0.00 0.00 0.00 0.00 0.00 0.00 0.00 0.00 0.00 0.00 0.00 0.00 0.00 0.00 0.00 0.00 0.00 0.02 0.09 0.17 0.15
0.00 0.00 0.00 0.00 0.00 0.00 0.00 0.00 0.00 0.00 0.00 0.00 0.00 0.00 0.00 0.00 0.00 0.00 0.00 0.00 0.01 0.01 0.00 0.00 0.00 0.00 0.00 0.00 0.00 0.00 0.00 0.00 0.00 0.00 0.00 0.00 0.00 0.00 0.00 0.00 0.02 0.12 0.15
0.00 0.00 0.00 0.00 0.00 0.00 0.00 0.00 0.00 0.00 0.00 0.00 0.00 0.00 0.00 0.00 0.00 0.00 0.01 0.01 0.03 0.02 0.03 0.04 0.02 0.01 0.00 0.00 0.00 0.01 0.00 0.00 0.00 0.00 0.00 0.00 0.00 0.00 0.00 0.00 0.03 0.10 0.16
0.00 0.00 0.00 0.00 0.00 0.00 0.00 0.00 0.00 0.00 0.00 0.00 0.00 0.00 0.00 0.00 0.01 0.00 0.00 0.00 0.00 0.00 0.01 0.02 0.04 0.05 0.02 0.01 0.00 0.01 0.02 0.00 0.00 0.00 0.00 0.00 0.00 0.00 0.00 0.00 0.02 0.04 0.08
0.00 0.00 0.00 0.00 0.00 0.00 0.00 0.00 0.00 0.00 0.00 0.00 0.00 0.00 0.00 0.00 0.00 0.00 0.00 0.00 0.00 0.00 0.00 0.00 0.00 0.00 0.01 0.01 0.00 0.00 0.02 0.00 0.00 0.00 0.00 0.00 0.00 0.00 0.00 0.00 0.01 0.02 0.03
0.00 0.00 0.00 0.00 0.00 0.00 0.00 0.00 0.00 0.00 0.00 0.00 0.00 0.00 0.00 0.00 0.00 0.00 0.00 0.00 0.00 0.00 0.00 0.00 0.00 0.00 0.00 0.00 0.00 0.01 0.02 0.02 0.00 0.00 0.00 0.00 0.00 0.00 0.00 0.00 0.02 0.03 0.03
0.00 0.00 0.00 0.00 0.00 0.00 0.00 0.00 0.00 0.00 0.00 0.00 0.00 0.00 0.00 0.00 0.00 0.00 0.00 0.00 0.00 0.00 0.00 0.00 0.00 0.00 0.00 0.00 0.00 0.00 0.01 0.00 0.00 0.00 0.00 0.00 0.00 0.00 0.00 0.00 0.01 0.04 0.02
0.00 0.00 0.00 0.00 0.00 0.00 0.00 0.00 0.00 0.00 0.00 0.00 0.00 0.00 0.00 0.00 0.00 0.00 0.00 0.00 0.00 0.00 0.00 0.00 0.00 0.01 0.01 0.01 0.00 0.00 0.00 0.00 0.00 0.00 0.00 0.00 0.00 0.00 0.00 0.00 0.01 0.03 0.02
0.00 0.00 0.00 0.00 0.00 0.00 0.00 0.00 0.00 0.00 0.00 0.00 0.00 0.00 0.00 0.00 0.00 0.00 0.00 0.00 0.00 0.00 0.00 0.00 0.00 0.00 0.00 0.00 0.01 0.00 0.00 0.00 0.00 0.00 0.00 0.00 0.00 0.00 0.00 0.00 0.01 0.02 0.04
0.00 0.00 0.00 0.00 0.00 0.00 0.00 0.00 0.00 0.00 0.00 0.00 0.00 0.00 0.00 0.00 0.00 0.00 0.00 0.00 0.00 0.00 0.00 0.00 0.00 0.00 0.00 0.00 0.01 0.05 0.01 0.00 0.00 0.00 0.00 0.00 0.00 0.00 0.00 0.00 0.01 0.02 0.04
0.00 0.00 0.00 0.00 0.00 0.00 0.00 0.00 0.00 0.00 0.00 0.00 0.00 0.00 0.00 0.00 0.00 0.00 0.00 0.00 0.00 0.00 0.00 0.00 0.00 0.00 0.00 0.00 0.00 0.02 0.01 0.00 0.01 0.01 0.00 0.00 0.00 0.00 0.00 0.00 0.01 0.02 0.04
0.00 0.00 0.00 0.00 0.00 0.00 0.00 0.00 0.00 0.00 0.00 0.00 0.00 0.00 0.00 0.00 0.00 0.01 0.01 0.00 0.01 0.02 0.01 0.00 0.01 0.00 0.00 0.01 0.03 0.03 0.01 0.01 0.02 0.02 0.01 0.00 0.00 0.00 0.00 0.00 0.00 0.01 0.06
0.00 0.00 0.00 0.00 0.00 0.00 0.00 0.00 0.00 0.00 0.00 0.00 0.00 0.00 0.00 0.00 0.00 0.02 0.02 0.03 0.04 0.05 0.03 0.01 0.01 0.00 0.00 0.02 0.04 0.04 0.03 0.05 0.04 0.01 0.00 0.00 0.00 0.00 0.00 0.00 0.02 0.02 0.07
0.00 0.00 0.00 0.00 0.00 0.00 0.00 0.00 0.00 0.00 0.00 0.00 0.00 0.00 0.00 0.00 0.00 0.04 0.03 0.04 0.06 0.06 0.06 0.03 0.02 0.00 0.00 0.02 0.09 0.09 0.06 0.06 0.02 0.00 0.00 0.00 0.00 0.00 0.00 0.01 0.02 0.05 0.10
0.00 0.00 0.00 0.00 0.00 0.00 0.00 0.00 0.00 0.00 0.00 0.00 0.00 0.00 0.00 0.00 0.00 0.04 0.05 0.07 0.07 0.06 0.06 0.04 0.04 0.02 0.03 0.06 0.07 0.07 0.05 0.04 0.01 0.00 0.00 0.01 0.02 0.01 0.02 0.02 0.05 0.13 0.15
0.00 0.00 0.00 0.00 0.00 0.00 0.00 0.00 0.00 0.00 0.00 0.00 0.00 0.00 0.00 0.01 0.03 0.06 0.07 0.03 0.02 0.04 0.05 0.03 0.04 0.05 0.05 0.07 0.08 0.07 0.05 0.03 0.00 0.00 0.01 0.04 0.05 0.04 0.02 0.05 0.05 0.08 0.20
0.00 0.00 0.00 0.00 0.00 0.00 0.00 0.00 0.00 0.00 0.00 0.00 0.00 0.00 0.00 0.03 0.05 0.07 0.04 0.02 0.03 0.02 0.02 0.03 0.07 0.08 0.09 0.12 0.12 0.08 0.08 0.05 0.01 0.01 0.03 0.09 0.06 0.02 0.04 0.06 0.05 0.01 0.05
0.00 0.00 0.00 0.00 0.00 0.00 0.00 0.00 0.00 0.00 0.00 0.00 0.00 0.00 0.00 0.02 0.05 0.08 0.06 0.03 0.00 0.00 0.00 0.05 0.08 0.08 0.09 0.14 0.14 0.09 0.08 0.05 0.05 0.04 0.05 0.06 0.02 0.01 0.02 0.05 0.03 0.01 0.04
0.00 0.00 0.00 0.00 0.00 0.00 0.00 0.00 0.00 0.00 0.00 0.00 0.00 0.00 0.00 0.01 0.04 0.05 0.04 0.03 0.01 0.02 0.07 0.11 0.08 0.06 0.11 0.13 0.13 0.08 0.06 0.02 0.03 0.07 0.12 0.09 0.03 0.03 0.03 0.04 0.06 0.05 0.06
0.00 0.00 0.00 0.00 0.00 0.00 0.00 0.00 0.00 0.00 0.00 0.00 0.00 0.00 0.00 0.00 0.02 0.03 0.04 0.05 0.02 0.11 0.13 0.08 0.03 0.03 0.13 0.14 0.07 0.06 0.05 0.01 0.03 0.10 0.20 0.16 0.08 0.02 0.02 0.05 0.08 0.04 0.03
0.00 0.00 0.00 0.00 0.00 0.00 0.00 0.00 0.00 0.00 0.00 0.00 0.00 0.00 0.00 0.04 0.09 0.00 0.02 0.02 0.07 0.11 0.07 0.04 0.00 0.01 0.13 0.13 0.08 0.15 0.10 0.01 0.02 0.13 0.11 0.08 0.05 0.02 0.02 0.07 0.05 0.06 0.04
0.00 0.00 0.00 0.00 0.00 0.00 0.00 0.00 0.00 0.00 0.00 0.00 0.00 0.01 0.04 0.09 0.11 0.04 0.02 0.07 0.08 0.06 0.04 0.03 0.01 0.01 0.13 0.11 0.09 0.12 0.11 0.03 0.03 0.15 0.10 0.02 0.03 0.03 0.03 0.04 0.04 0.04 0.07
MSLP
1008.46 1009.25 1010.77 1011.19 1011.56 1012.05 1012.50 1012.84 1013.19 1013.62 1013.88 1014.18 1014.34 1014.44 1014.57 1014.75 1014.94 1015.05 1015.21 1015.32 1015.38 1015.40 1015.39 1015.37 1015.43 1015.37 1015.37 1015.31 1015.20 1015.21 1015.06 1015.19 1015.31 1014.99 1014.77 1014.62 1014.59 1014.71 1014.76 1014.89 1014.94 1014.63 1015.11
1007.70 1008.92 1010.53 1011.01 1011.42 1011.69 1012.11 1012.50 1012.96 1013.37 1013.62 1013.99 1014.28 1014.38 1014.46 1014.62 1014.83 1014.93 1014.99 1015.07 1015.16 1015.26 1015.38 1015.31 1015.27 1015.30 1015.40 1015.36 1015.26 1015.21 1015.14 1015.10 1015.35 1015.26 1014.84 1014.60 1014.48 1014.54 1014.69 1014.84 1014.85 1014.28 1015.26
1007.62 1008.78 1010.11 1010.64 1011.07 1011.51 1012.02 1012.40 1012.70 1013.06 1013.40 1013.66 1013.96 1014.20 1014.40 1014.49 1014.59 1014.77 1014.88 1015.02 1015.11 1015.18 1015.23 1015.23 1015.23 1015.27 1015.18 1015.21 1015.25 1015.11 1015.03 1015.06 1015.16 1015.26 1014.96 1014.05 1013.87 1014.40 1014.56 1014.70 1014.67 1014.99 1015.13
1007.62 1008.59 1009.44 1010.37 1010.80 1011.22 1011.79 1012.21 1012.58 1012.99 1013.33 1013.60 1013.91 1014.11 1014.36 1014.51 1014.63 1014.70 1014.72 1014.82 1014.97 1014.96 1014.97 1015.05 1015.09 1015.06 1015.07 1014.96 1015.01 1015.09 1015.06 1015.06 1015.07 1014.98 1014.46 1013.36 1013.43 1014.05 1014.35 1014.55 1014.77 1014.98 1015.32
1007.53 1008.28 1008.98 1009.95 1010.63 1011.21 1011.68 1012.17 1012.67 1012.97 1013.24 1013.50 1013.77 1013.96 1014.16 1014.33 1014.44 1014.59 1014.67 1014.67 1014.71 1014.77 1014.73 1014.72 1014.71 1014.74 1014.66 1014.82 1014.81 1014.86 1014.90 1015.14 1015.07 1014.86 1013.93 1013.52 1013.47 1013.27 1014.11 1014.47 1014.71 1015.02 1015.23
1007.19 1007.90 1008.61 1009.64 1010.41 1010.91 1011.33 1011.83 1012.28 1012.67 1012.99 1013.29 1013.54 1013.71 1013.88 1014.06 1014.16 1014.30 1014.48 1014.44 1014.51 1014.48 1014.48 1014.50 1014.45 1014.48 1014.48 1014.48 1014.52 1014.69 1014.67 1014.92 1014.99 1014.18 1013.52 1013.67 1014.09 1013.58 1014.01 1014.35 1014.52 1014.78 1015.27
1006.96 1007.44 1008.03 1009.46 1010.10 1010.61 1011.01 1011.46 1012.00 1012.46 1012.84 1013.11 1013.34 1013.50 1013.66 1013.80 1013.94 1014.02 1014.13 1014.26 1014.25 1014.29 1014.27 1014.26 1014.22 1014.24 1014.37 1014.42 1014.39 1014.60 1014.62 1014.61 1014.65 1013.70 1013.17 1013.74 1013.50 1013.91 1014.21 1014.33 1014.46 1014.79 1015.13
1006.86 1007.54 1007.82 1009.24 1009.92 1010.27 1010.71 1011.16 1011.69 1012.11 1012.54 1012.83 1013.08 1013.32 1013.50 1013.62 1013.71 1013.76 1013.83 1014.01 1014.07 1014.10 1014.06 1014.00 1014.02 1014.11 1014.24 1014.39 1014.39 1014.50 1014.39 1014.41 1014.05 1013.75 1013.30 1013.42 1013.37 1014.13 1014.33 1014.29 1014.36 1014.65 1015.03
1006.90 1007.50 1007.86 1008.59 1009.65 1010.38 1010.71 1011.14 1011.65 1012.05 1012.40 1012.65 1012.94 1013.11 1013.29 1013.46 1013.52 1013.56 1013.59 1013.79 1013.93 1014.00 1014.06 1014.02 1013.91 1013.90 1014.04 1014.21 1014.22 1014.12 1014.16 1014.35 1014.02 1013.04 1012.89 1013.15 1013.14 1014.08 1014.26 1014.20 1014.28 1014.40 1014.76
1006.56 1006.92 1007.66 1008.15 1008.73 1009.54 1010.21 1010.99 1011.40 1011.99 1012.30 1012.61 1012.84 1013.04 1013.14 1013.26 1013.30 1013.40 1013.50 1013.54 1013.70 1013.85 1013.91 1013.96 1013.92 1013.84 1013.79 1013.84 1013.92 1013.98 1014.04 1014.27 1013.86 1013.23 1012.46 1012.58 1013.40 1014.02 1014.14 1013.99 1014.10 1014.21 1014.68
1005.81 1006.56 1007.05 1007.62 1008.16 1008.68 1009.10 1009.96 1011.18 1011.63 1012.08 1012.42 1012.68 1012.86 1012.97 1012.54 1012.13 1012.39 1012.51 1013.03 1013.31 1013.45 1013.58 1013.67 1013.69 1013.60 1013.52 1013.49 1013.54 1013.63 1013.80 1013.25 1012.67 1012.68 1012.05 1012.31 1013.41 1013.99 1013.98 1013.86 1013.98 1014.09 1014.47
1005.25 1005.90 1006.45 1007.25 1007.70 1008.24 1008.43 1009.12 1010.38 1010.59 1010.95 1011.29 1011.58 1011.70 1011.90 1011.90 1011.85 1012.16 1012.38 1012.78 1013.00 1013.02 1013.10 1013.15 1013.16 1013.14 1013.23 1012.32 1011.95 1012.80 1012.85 1012.47 1012.04 1011.75 1012.16 1012.53 1013.39 1013.79 1013.84 1013.71 1013.81 1013.94 1014.25
1003.76 1004.67 1005.74 1006.87 1007.44 1007.92 1008.13 1008.69 1009.28 1009.76 1010.14 1010.59 1010.97 1011.41 1011.59 1011.62 1011.60 1011.71 1011.61 1011.65 1011.83 1012.10 1012.10 1011.89 1011.91 1012.02 1011.70 1011.79 1011.83 1011.92 1011.50 1011.66 1011.34 1011.33 1011.48 1012.57 1013.42 1013.69 1013.64 1013.52 1013.57 1013.78 1014.02
1002.93 1003.39 1004.73 1006.16 1007.17 1007.52 1007.54 1008.44 1008.73 1009.14 1009.69 1010.20 1010.55 1011.15 1011.47 1011.45 1011.42 1011.54 1011.22 1011.32 1011.56 1011.60 1011.64 1011.76 1011.41 1011.58 1011.65 1011.74 1011.58 1011.71 1011.93 1011.21 1010.69 1011.30 1011.48 1012.51 1013.30 1013.46 1013.36 1013.30 1013.39 1013.65 1013.81
1002.34 1002.76 1003.85 1005.46 1006.64 1007.09 1007.43 1007.88 1008.46 1008.99 1009.52 1009.74 1010.21 1010.57 1010.99 1010.89 1010.97 1011.04 1011.11 1011.29 1011.52 1011.41 1011.31 1011.33 1011.19 1011.34 1011.33 1011.34 1011.17 1011.09 1011.62 1011.14 1010.86 1011.44 1011.73 1012.19 1012.93 1013.15 1013.16 1013.26 1013.28 1013.30 1013.57
1001.90 1002.37 1003.46 1004.71 1006.12 1006.54 1006.71 1007.51 1008.38 1008.97 1009.00 1009.60 1009.64 1009.93 1010.62 1010.67 1010.72 1010.77 1010.99 1011.18 1011.21 1011.09 1011.04 1010.93 1011.08 1011.09 1010.90 1010.87 1010.86 1011.07 1010.88 1010.78 1011.03 1011.48 1011.52 1011.57 1012.45 1012.73 1012.93 1013.08 1013.00 1012.96 1013.34
1001.66 1002.13 1002.85 1004.39 1005.45 1005.91 1006.25 1007.05 1007.95 1008.36 1008.92 1009.04 1009.05 1009.78 1010.24 1010.51 1010.48 1010.82 1010.70 1010.77 1010.90 1011.14 1011.25 1011.26 1011.12 1011.02 1010.98 1010.73 1010.91 1010.78 1010.81 1010.88 1011.37 1011.54 1011.50 1011.27 1011.07 1011.93 1012.41 1012.63 1012.69 1012.75 1013.05
1001.35 1001.79 1002.70 1003.79 1004.57 1005.38 1005.72 1006.50 1007.10 1007.82 1008.64 1008.69 1008.74 1009.25 1009.81 1010.11 1010.31 1010.50 1010.58 1010.75 1010.95 1011.12 1011.17 1010.94 1010.76 1010.39 1010.41 1010.26 1010.65 1011.08 1010.91 1010.99 1011.17 1010.95 1011.12 1010.99 1010.79 1010.60 1011.48 1011.90 1012.29 1012.41 1012.96
1000.97 1001.67 1002.76 1003.52 1004.16 1005.08 1005.61 1005.81 1006.77 1007.68 1008.29 1008.40 1008.42 1008.79 1009.12 1009.45 1009.67 1009.98 1010.25 1010.49 1010.50 1010.90 1010.93 1010.79 1010.26 1010.38 1009.99 1010.62 1011.12 1011.14 1010.94 1010.93 1010.87 1010.64 1010.59 1010.73 1010.91 1010.69 1010.32 1011.28 1011.81 1012.09 1012.55
1001.11 1001.95 1002.74 1003.47 1004.26 1005.19 1005.70 1006.32 1006.91 1007.40 1007.89 1008.03 1008.14 1008.37 1008.61 1008.85 1009.12 1009.56 1009.97 1010.11 1010.55 1010.76 1010.57 1010.37 1010.15 1010.29 1010.29 1010.55 1010.85 1010.88 1010.63 1010.51 1010.29 1010.28 1010.32 1010.33 1010.89 1010.85 1010.62 1010.97 1011.09 1011.43 1012.16
1001.36 1001.98 1002.66 1003.57 1004.53 1004.87 1005.41 1005.78 1006.37 1006.88 1007.30 1007.53 1007.79 1008.09 1008.37 1008.40 1008.81 1009.34 1009.60 1010.10 1010.31 1010.32 1010.26 1010.09 1010.17 1010.36 1010.48 1010.62 1010.77 1010.78 1010.62 1010.60 1010.21 1009.89 1010.15 1010.73 1010.81 1010.56 1010.58 1010.69 1011.26 1011.50 1012.62
1001.51 1002.10 1002.90 1003.67 1004.52 1004.81 1005.20 1005.55 1005.95 1006.42 1006.69 1007.04 1007.24 1007.85 1008.07 1008.08 1008.58 1009.02 1009.25 1009.48 1009.85 1010.09 1009.87 1009.91 1010.13 1010.16 1010.23 1010.29 1010.11 1009.80 1009.95 1010.34 1010.04 1010.08 1010.16 1010.50 1010.53 1010.45 1010.41 1010.54 1011.15 1011.80 1012.91
1001.48 1002.18 1002.94 1003.67 1004.31 1004.76 1005.26 1006.01 1006.53 1006.87 1007.08 1007.01 1007.10 1007.36 1007.76 1008.00 1008.26 1008.70 1008.93 1009.28 1009.32 1009.21 1008.90 1009.53 1009.76 1009.79 1009.76 1009.79 1009.70 1009.14 1008.86 1007.94 1008.98 1009.93 1010.15 1010.27 1010.39 1010.47 1010.48 1010.80 1011.43 1011.87 1012.35
1001.42 1002.17 1002.84 1003.55 1004.25 1005.01 1005.59 1005.75 1006.04 1005.96 1006.08 1006.34 1006.87 1007.10 1007.46 1007.88 1008.06 1008.23 1008.68 1008.85 1008.70 1008.95 1009.26 1009.24 1009.13 1008.99 1009.28 1009.14 1009.22 1008.86 1008.54 1007.61 1007.92 1009.40 1010.13 1010.31 1010.46 1010.55 1010.84 1011.20 1011.76 1011.88 1012.10
1001.48 1002.06 1002.90 1003.65 1004.37 1005.16 1005.63 1005.73 1006.11 1006.27 1006.43 1006.60 1006.84 1007.29 1007.45 1007.59 1007.94 1007.96 1008.07 1008.20 1008.39 1008.77 1008.71 1008.64 1008.66 1008.99 1009.15 1009.12 1008.48 1008.88 1008.67 1008.02 1008.08 1008.55 1009.52 1010.55 1010.92 1011.28 1011.33 1011.62 1011.97 1012.30 1012.50
1001.38 1002.22 1003.08 1003.84 1004.60 1005.26 1005.71 1006.07 1006.25 1006.51 1006.59 1006.53 1006.74 1006.78 1007.00 1007.61 1007.93 1007.67 1007.76 1008.15 1008.27 1008.27 1008.28 1008.44 1008.55 1008.75 1008.95 1009.04 1009.04 1008.96 1008.75 1008.18 1007.99 1008.54 1009.27 1010.34 1010.94 1011.58 1011.87 1012.06 1012.41 1012.80 1013.23
Thickness
5804 5799 5783 5778 5774 5769 5762 5757 5751 5745 5741 5735 5733 5732 5731 5729 5728 5727 5726 5725 5724 5723 5723 5724 5724 5727 5727 5728 5730 5731 5734 5735 5734 5740 5744 5747 5747 5747 5747 5748 5750 5752 5750
5812 5797 5781 5776 5772 5769 5762 5757 5751 5744 5740 5735 5731 5728 5726 5723 5721 5719 5720 5720 5719 5718 5716 5718 5718 5719 5719 5721 5723 5725 5727 5730 5729 5732 5738 5743 5745 5745 5745 5745 5746 5753 5746
5809 5795 5781 5776 5772 5765 5759 5754 5750 5744 5738 5734 5729 5724 5721 5718 5716 5714 5712 5712 5712 5712 5712 5712 5711 5712 5714 5715 5717 5720 5722 5723 5725 5726 5732 5741 5745 5744 5743 5742 5745 5744 5744
5806 5793 5782 5774 5768 5763 5756 5750 5745 5740 5735 5730 5724 5720 5715 5712 5709 5707 5706 5706 5705 5705 5706 5706 5706 5707 5708 5711 5712 5713 5716 5717 5719 5723 5729 5741 5744 5742 5741 5741 5740 5739 5739
5803 5793 5782 5772 5764 5759 5753 5745 5738 5733 5729 5725 5720 5716 5712 5709 5706 5702 5699 5699 5699 5699 5700 5701 5702 5702 5705 5705 5707 5709 5711 5711 5713 5718 5728 5733 5737 5743 5738 5737 5736 5735 5736
5802 5792 5781 5771 5762 5756 5751 5744 5736 5730 5725 5721 5717 5714 5710 5707 5704 5701 5697 5696 5694 5694 5694 5694 5696 5697 5698 5700 5703 5703 5706 5707 5708 5716 5725 5727 5726 5734 5735 5733 5733 5733 5732
5799 5792 5782 5768 5760 5754 5750 5743 5735 5728 5722 5717 5713 5708 5705 5702 5698 5696 5694 5692 5691 5690 5690 5689 5689 5690 5691 5692 5695 5696 5699 5702 5703 5713 5722 5719 5724 5726 5727 5728 5729 5728 5729
5795 5787 5781 5766 5758 5753 5748 5741 5734 5728 5721 5715 5709 5704 5699 5696 5693 5690 5689 5686 5684 5684 5685 5685 5685 5685 5683 5684 5687 5689 5694 5696 5700 5706 5714 5715 5720 5716 5718 5722 5724 5725 5725
5792 5784 5777 5766 5755 5748 5743 5736 5730 5724 5717 5711 5704 5699 5695 5689 5687 5685 5683 5680 5678 5676 5675 5676 5679 5679 5679 5678 5681 5685 5688 5688 5692 5703 5709 5710 5716 5710 5711 5716 5719 5721 5722
5789 5783 5773 5766 5758 5749 5741 5733 5727 5719 5712 5705 5699 5693 5689 5685 5682 5679 5677 5675 5673 5671 5669 5668 5669 5670 5672 5674 5675 5677 5679 5680 5684 5693 5703 5707 5706 5703 5705 5710 5713 5716 5716
5786 5779 5774 5767 5758 5751 5745 5736 5722 5716 5709 5700 5694 5689 5683 5683 5684 5680 5677 5672 5668 5666 5664 5662 5662 5664 5666 5668 5670 5671 5671 5678 5685 5689 5698 5702 5697 5695 5699 5704 5706 5710 5711
5779 5775 5773 5765 5758 5750 5746 5738 5724 5719 5712 5704 5698 5693 5687 5683 5681 5676 5673 5668 5665 5664 5661 5659 5658 5659 5659 5668 5673 5669 5670 5675 5682 5688 5689 5692 5689 5689 5693 5698 5701 5704 5706
5789 5782 5774 5763 5756 5749 5745 5737 5728 5720 5713 5704 5697 5690 5684 5680 5677 5673 5672 5670 5666 5663 5661 5662 5661 5660 5663 5664 5666 5668 5673 5674 5679 5684 5686 5683 5681 5682 5687 5693 5697 5699 5702
5790 5787 5777 5764 5753 5748 5745 5735 5728 5720 5711 5702 5695 5686 5680 5676 5673 5669 5668 5665 5661 5658 5657 5655 5658 5656 5656 5657 5660 5661 5661 5669 5676 5675 5677 5675 5673 5676 5682 5688 5692 5694 5698
5788 5786 5778 5766 5753 5748 5741 5735 5725 5716 5708 5700 5692 5685 5677 5674 5670 5666 5663 5658 5654 5653 5651 5650 5651 5651 5651 5651 5654 5656 5654 5660 5666 5665 5666 5668 5667 5670 5675 5680 5686 5690 5693
5789 5784 5777 5767 5753 5748 5743 5733 5721 5711 5706 5696 5691 5684 5675 5670 5666 5662 5657 5653 5650 5648 5646 5646 5645 5645 5647 5647 5647 5647 5651 5654 5656 5655 5658 5662 5662 5665 5669 5674 5681 5686 5688
5786 5783 5777 5764 5754 5748 5742 5731 5720 5711 5701 5695 5691 5681 5672 5666 5661 5655 5653 5649 5645 5640 5637 5636 5636 5638 5638 5641 5640 5643 5645 5646 5645 5646 5650 5657 5664 5664 5665 5670 5676 5681 5684
5784 5780 5774 5765 5757 5748 5742 5730 5722 5710 5698 5692 5688 5679 5670 5663 5657 5651 5647 5642 5638 5634 5632 5633 5633 5635 5634 5636 5634 5632 5636 5638 5638 5642 5645 5651 5658 5665 5665 5668 5671 5677 5678
5784 5777 5767 5760 5754 5744 5736 5729 5717 5705 5695 5689 5684 5677 5669 5662 5655 5648 5642 5638 5634 5628 5626 5626 5630 5627 5629 5625 5622 5624 5628 5630 5633 5637 5643 5646 5650 5657 5665 5664 5667 5673 5676
5777 5770 5762 5754 5746 5737 5731 5721 5711 5702 5692 5686 5681 5674 5666 5659 5652 5644 5638 5633 5625 5621 5621 5621 5621 5621 5620 5617 5616 5617 5622 5625 5631 5635 5639 5643 5643 5648 5656 5660 5665 5672 5675
5768 5763 5756 5747 5737 5733 5724 5715 5706 5695 5689 5683 5678 5669 5662 5656 5648 5640 5634 5625 5620 5617 5615 5616 5612 5607 5608 5610 5608 5608 5613 5617 5624 5632 5636 5634 5638 5644 5650 5655 5658 5666 5665
5761 5757 5748 5740 5731 5726 5720 5713 5705 5695 5689 5683 5677 5666 5658 5652 5643 5635 5629 5624 5617 5611 5612 5609 5605 5604 5605 5607 5606 5611 5607 5608 5618 5624 5630 5631 5636 5642 5647 5652 5655 5660 5653
5755 5750 5743 5734 5726 5721 5714 5704 5694 5687 5680 5675 5670 5662 5655 5647 5638 5631 5626 5619 5616 5615 5615 5609 5606 5604 5603 5605 5607 5611 5608 5620 5619 5620 5625 5631 5635 5638 5644 5648 5650 5654 5658
5752 5746 5739 5730 5721 5712 5705 5697 5690 5685 5678 5674 5664 5659 5652 5643 5636 5631 5623 5619 5618 5614 5609 5609 5609 5609 5607 5606 5607 5614 5620 5629 5624 5616 5622 5627 5631 5635 5640 5645 5644 5651 5658
5747 5741 5732 5723 5713 5705 5697 5692 5684 5678 5673 5667 5660 5652 5646 5640 5633 5629 5626 5622 5618 5612 5611 5612 5612 5610 5609 5608 5613 5611 5616 5627 5631 5627 5620 5619 5624 5628 5636 5640 5642 5646 5653
5743 5733 5724 5714 5705 5698 5691 5685 5679 5671 5665 5661 5656 5650 5644 5635 5629 5630 5627 5622 5619 5617 5617 5615 5616 5614 5612 5612 5613 5615 5617 5623 5628 5627 5624 5621 5622 5625 5631 5636 5639 5642 5644